[Date Prev][Date Next][Thread Prev][Thread Next] - [Date Index][Thread Index][Author Index]

MIR & ISS Keps 3-26




MIR
1 16609U 86017A   99085.37657931  .00014528  00000-0  10602-3 0  3396
2 16609  51.6619  48.3625 0011734 287.0540  72.9089 15.73472604748375
ISS (ZARYA)
1 25544U 98067A   99085.57471348 -.00011334  00000-0 -13581-3 0  4293
2 25544  51.5919 253.8701 0004564 281.9123  78.1361 15.59133059 19707


----
Via the sarex mailing list at AMSAT.ORG courtesy of AMSAT-NA.
To unsubscribe, send "unsubscribe sarex" to Majordomo@amsat.org



AMSAT Top AMSAT Home